Date String (YYYY-MM-DD hh:mm:ss) UTC,Instrument flags,Ambient pressure (hPa),Sample flow (lpm),Bypass flow (lpm),Sample temperature (°C),Ambient temperature (°C),ASC tube jacket temperature (°C),LED temperature (°C),Box temperature (°C),Sample RH (%),Span deviation,Mass concentration (μg/m³),Mass concentration (μg/m³),Mass concentration (μg/m³)
DateTimeUTC,F1_M11,P_M11,Q1_M11,Q2_M11,T1_M11,T2_M11,T3_M11,T4_M11,T5_M11,U1_M11,ZSPAN_M11,X0_M11,X2_M11,X1_M11
2022-06-26 08:00:00,,0838.0,5.00,0.00,30.2,29.2,00.0,39.0,32.0,29.7,0000.0,0008.37,0003.93,0003.17
2022-06-26 08:01:00,,0838.0,5.00,0.00,30.2,29.2,00.0,39.0,32.1,29.5,0000.0,0008.40,0003.94,0003.18
2022-06-26 08:02:00,,0838.0,5.00,0.00,30.2,29.2,00.0,39.0,32.1,29.4,0000.0,0008.36,0003.92,0003.19
2022-06-26 08:03:00,,0838.0,5.00,0.00,30.2,29.2,00.0,39.0,32.1,29.4,0000.0,0008.36,0003.90,0003.19
2022-06-26 08:04:00,,0838.0,4.99,0.00,30.2,29.2,00.0,39.0,32.1,29.4,0000.0,0008.45,0003.88,0003.18
2022-06-26 08:05:00,,0838.0,5.00,0.00,30.2,29.3,00.0,39.0,32.1,29.3,0000.0,0008.36,0003.87,0003.18
2022-06-26 08:06:00,,0838.0,5.01,0.00,30.2,29.3,00.0,39.0,32.1,29.4,0000.0,0008.78,0003.87,0003.18
2022-06-26 08:07:00,,0838.1,5.00,0.00,30.3,29.3,00.0,39.1,32.1,29.4,0000.0,0008.39,0003.90,0003.18
2022-06-26 08:08:00,,0838.0,5.00,0.00,30.3,29.3,00.0,39.1,32.1,29.4,0000.0,0008.52,0003.97,0003.19
2022-06-26 08:09:00,,0838.0,4.99,0.00,30.3,29.3,00.0,39.1,32.1,29.4,0000.0,0008.55,0004.01,0003.20
2022-06-26 08:10:00,,0838.0,5.00,0.00,30.3,29.3,00.0,39.1,32.2,29.4,0000.0,0008.50,0004.00,0003.19
2022-06-26 08:11:00,,0837.9,5.01,0.00,30.3,29.3,00.0,39.1,32.2,29.3,0000.0,0008.52,0004.01,0003.20
2022-06-26 08:12:00,,0838.0,5.00,0.00,30.3,29.3,00.0,39.1,32.2,29.1,0000.0,0008.45,0003.98,0003.20
2022-06-26 08:13:00,,0838.0,5.00,0.00,30.3,29.3,00.0,39.1,32.2,29.1,0000.0,0008.57,0003.99,0003.20
2022-06-26 08:14:00,,0838.0,5.00,0.00,30.3,29.3,00.0,39.1,32.2,29.1,0000.0,0008.75,0004.07,0003.22
2022-06-26 08:15:00,,0838.0,5.00,0.00,30.3,29.4,00.0,39.1,32.2,29.1,0000.0,0008.74,0004.11,0003.23
2022-06-26 08:16:00,,0838.0,5.01,0.00,30.4,29.4,00.0,39.2,32.2,29.1,0000.0,0008.70,0004.10,0003.24
2022-06-26 08:17:00,,0837.9,4.99,0.00,30.4,29.4,00.0,39.2,32.2,29.1,0000.0,0007.94,0004.09,0003.24
2022-06-26 08:18:00,,0837.9,5.00,0.00,30.4,29.3,00.0,39.2,32.2,29.2,0000.0,0007.86,0004.07,0003.24
2022-06-26 08:19:00,,0837.9,5.01,0.00,30.3,28.5,00.0,39.1,32.0,29.1,0000.0,0007.81,0004.02,0003.24
2022-06-26 08:20:00,,0837.9,4.99,0.00,30.2,27.8,00.0,39.0,31.8,29.2,0000.0,0007.70,0003.96,0003.23
2022-06-26 08:21:00,,0837.9,4.99,0.00,30.1,27.7,00.0,39.0,31.7,29.4,0000.0,0007.88,0003.94,0003.23
2022-06-26 08:22:00,,0837.9,5.01,0.00,30.0,27.7,00.0,39.0,31.6,29.6,0000.0,0008.31,0003.97,0003.23
2022-06-26 08:23:00,,0837.9,4.99,0.00,30.0,27.8,00.0,38.9,31.6,29.8,0000.0,0008.66,0004.02,0003.23
2022-06-26 08:24:00,,0838.0,5.00,0.00,29.9,27.9,00.0,38.9,31.6,29.9,0000.0,0008.52,0004.00,0003.23
2022-06-26 08:25:00,,0837.9,5.00,0.00,29.9,28.0,00.0,38.9,31.7,29.9,0000.0,0008.51,0003.97,0003.21
2022-06-26 08:26:00,,0837.9,5.00,0.00,29.9,28.1,00.0,38.9,31.7,29.5,0000.0,0008.33,0003.92,0003.21
2022-06-26 08:27:00,,0837.9,5.00,0.00,29.9,28.3,00.0,38.9,31.7,29.4,0000.0,0008.32,0003.90,0003.19
2022-06-26 08:28:00,,0837.9,5.00,0.00,29.9,28.3,00.0,38.8,31.7,29.4,0000.0,0008.98,0003.93,0003.18
2022-06-26 08:29:00,,0837.9,5.00,0.00,29.9,28.4,00.0,38.8,31.7,29.3,0000.0,0009.16,0003.92,0003.15
2022-06-26 08:30:00,,0837.9,5.01,0.00,29.9,28.5,00.0,38.8,31.7,29.4,0000.0,0009.04,0003.89,0003.14
2022-06-26 08:31:00,,0837.9,5.00,0.00,29.9,28.6,00.0,38.8,31.7,29.4,0000.0,0009.03,0003.89,0003.12
2022-06-26 08:32:00,,0837.8,5.00,0.00,29.9,28.6,00.0,38.8,31.7,29.4,0000.0,0008.98,0003.90,0003.11
2022-06-26 08:33:00,,0837.8,5.00,0.00,29.9,28.7,00.0,38.8,31.7,29.3,0000.0,0008.66,0003.91,0003.07
2022-06-26 08:34:00,,0837.8,5.00,0.00,29.9,28.7,00.0,38.8,31.8,29.3,0000.0,0008.33,0003.86,0003.04
2022-06-26 08:35:00,,0837.8,4.99,0.00,29.9,28.8,00.0,38.8,31.8,29.4,0000.0,0008.41,0003.84,0003.01
2022-06-26 08:36:00,,0837.8,5.00,0.00,30.0,28.8,00.0,38.8,31.8,29.3,0000.0,0008.28,0003.81,0002.98
2022-06-26 08:37:00,,0837.8,5.00,0.00,30.0,28.9,00.0,38.8,31.9,29.2,0000.0,0008.17,0003.77,0002.96
2022-06-26 08:38:00,,0837.9,5.00,0.00,30.0,28.9,00.0,38.8,31.9,29.1,0000.0,0008.15,0003.77,0002.94
2022-06-26 08:39:00,,0837.8,5.00,0.00,30.0,28.9,00.0,38.8,31.9,29.2,0000.0,0007.58,0003.78,0002.93
2022-06-26 08:40:00,,0837.8,4.99,0.00,30.0,28.9,00.0,38.8,31.9,29.6,0000.0,0007.55,0003.77,0002.94
2022-06-26 08:41:00,,0837.8,5.00,0.00,30.0,29.0,00.0,38.9,31.9,29.3,0000.0,0007.79,0003.78,0002.93
2022-06-26 08:42:00,,0837.8,5.01,0.00,30.0,29.0,00.0,38.9,31.9,29.1,0000.0,0007.91,0003.83,0002.92
2022-06-26 08:43:00,,0837.8,5.00,0.00,30.0,29.0,00.0,38.9,31.9,29.0,0000.0,0007.89,0003.83,0002.90
2022-06-26 08:44:00,,0837.8,5.01,0.00,30.1,29.0,00.0,38.9,31.9,28.8,0000.0,0007.78,0003.77,0002.88
2022-06-26 08:45:00,,0837.8,4.99,0.00,30.1,29.0,00.0,38.9,31.9,28.7,0000.0,0007.73,0003.75,0002.87
2022-06-26 08:46:00,,0837.8,5.00,0.00,30.1,29.1,00.0,38.9,32.0,28.6,0000.0,0007.76,0003.76,0002.86
2022-06-26 08:47:00,,0837.8,5.01,0.00,30.1,29.1,00.0,38.9,32.0,28.6,0000.0,0008.31,0003.77,0002.84
2022-06-26 08:48:00,,0837.8,5.01,0.00,30.1,29.1,00.0,38.9,32.0,28.5,0000.0,0008.39,0003.80,0002.83
2022-06-26 08:49:00,,0837.7,4.98,0.00,30.1,29.1,00.0,38.9,32.0,28.5,0000.0,0008.39,0003.78,0002.82
2022-06-26 08:50:00,,0837.8,5.00,0.00,30.1,29.1,00.0,38.9,32.0,28.5,0000.0,0008.37,0003.75,0002.81
2022-06-26 08:51:00,,0837.8,5.01,0.00,30.1,29.2,00.0,39.0,32.0,28.6,0000.0,0008.20,0003.72,0002.82
2022-06-26 08:52:00,,0837.8,5.00,0.00,30.2,29.2,00.0,39.0,32.0,28.6,0000.0,0007.98,0003.70,0002.82
2022-06-26 08:53:00,,0837.8,5.00,0.00,30.2,29.2,00.0,39.0,32.0,27.6,0000.0,0007.87,0003.65,0002.80
2022-06-26 08:54:00,,0837.8,5.00,0.00,30.2,29.2,00.0,39.0,32.0,27.3,0000.0,0008.25,0003.60,0002.79
2022-06-26 08:55:00,,0837.8,5.01,0.00,30.2,29.2,00.0,39.0,32.1,27.2,0000.0,0008.15,0003.57,0002.78
2022-06-26 08:56:00,,0837.8,4.99,0.00,30.2,29.2,00.0,39.0,32.1,26.9,0000.0,0008.21,0003.60,0002.76
2022-06-26 08:57:00,,0837.8,4.99,0.00,30.2,29.2,00.0,39.0,32.1,27.3,0000.0,0008.05,0003.56,0002.74
2022-06-26 08:58:00,,0837.8,5.00,0.00,30.2,29.2,00.0,39.0,32.1,27.8,0000.0,0007.48,0003.54,0002.74
2022-06-26 08:59:00,,0837.8,5.01,0.00,30.2,29.2,00.0,39.0,32.1,28.0,0000.0,0007.58,0003.55,0002.76
